When you browse on this site, cookies collect data to enhance your experience and personalize the content and advertising you see.
Visit our Privacy Policy to learn more. By continuing to use the site, you agree to this use of cookies and data.
  • în România
  • Lista ţărilor
  • Pe 7 zile
  • Temperatura apei
  • Hartă satelitară
  • Meteo pe hartă
  • Widget-uri
  • user-avatar
    Intrare

    Meteo pe oră la Dębno

    Astăzi, 27 Mai, Luni

    Timp Temperatura Precipitaţii Vânt Presiune Umiditate
    00:00 +16°C° 0 mm 3 m/s 752 mmHg 80%
    01:00 +14°C° 0 mm 3 m/s 752 mmHg 80%
    02:00 +14°C° 0 mm 3 m/s 752 mmHg 80%
    03:00 +14°C° 0 mm 4 m/s 752 mmHg 79%
    04:00 +15°C° 0 mm 4 m/s 751 mmHg 78%
    05:00 +15°C° 0 mm 4 m/s 751 mmHg 76%
    06:00 +16°C° 0 mm 5 m/s 751 mmHg 74%
    07:00 +17°C° 0 mm 5 m/s 751 mmHg 72%
    08:00 +19°C° 0 mm 5 m/s 752 mmHg 70%
    09:00 +19°C° 0 mm 5 m/s 752 mmHg 69%
    10:00 +20°C° 0 mm 5 m/s 752 mmHg 67%
    11:00 +19°C° 0.1 mm 5 m/s 752 mmHg 70%
    12:00 +19°C° 0.1 mm 4 m/s 752 mmHg 72%
    13:00 +19°C° 0.1 mm 4 m/s 751 mmHg 74%
    14:00 +19°C° 0 mm 4 m/s 751 mmHg 70%
    15:00 +20°C° 0 mm 3 m/s 751 mmHg 67%
    16:00 +21°C° 0 mm 3 m/s 751 mmHg 63%
    17:00 +20°C° 0 mm 2 m/s 751 mmHg 66%
    18:00 +19°C° 0 mm 2 m/s 751 mmHg 70%
    19:00 +20°C° 0 mm 1 m/s 751 mmHg 73%
    20:00 +19°C° 0 mm 1 m/s 751 mmHg 76%
    21:00 +16°C° 0 mm 0 m/s 751 mmHg 79%
    22:00 +15°C° 0 mm 0 m/s 751 mmHg 81%
    23:00 +14°C° 0 mm 0 m/s 751 mmHg 83%

    Mâine, 28 Mai, Marţi

    Timp Temperatura Precipitaţii Vânt Presiune Umiditate
    00:00 +14°C° 0 mm 0 m/s 750 mmHg 85%
    01:00 +14°C° 0 mm 0 m/s 750 mmHg 87%
    02:00 +14°C° 0 mm 1 m/s 750 mmHg 88%
    03:00 +14°C° 0 mm 2 m/s 750 mmHg 90%
    04:00 +13°C° 0 mm 2 m/s 750 mmHg 91%
    05:00 +13°C° 0 mm 3 m/s 750 mmHg 87%
    06:00 +13°C° 0 mm 4 m/s 750 mmHg 83%
    07:00 +13°C° 0 mm 5 m/s 750 mmHg 79%
    08:00 +13°C° 0 mm 5 m/s 750 mmHg 76%
    09:00 +14°C° 0 mm 4 m/s 750 mmHg 73%
    10:00 +14°C° 0 mm 4 m/s 751 mmHg 69%
    11:00 +14°C° 0 mm 4 m/s 751 mmHg 67%
    12:00 +15°C° 0 mm 4 m/s 751 mmHg 65%
    13:00 +15°C° 0 mm 4 m/s 751 mmHg 62%
    14:00 +15°C° 0 mm 4 m/s 751 mmHg 63%
    15:00 +15°C° 0 mm 4 m/s 752 mmHg 64%
    16:00 +14°C° 0 mm 4 m/s 752 mmHg 64%
    17:00 +14°C° 0 mm 4 m/s 752 mmHg 66%
    18:00 +13°C° 0 mm 3 m/s 753 mmHg 69%
    19:00 +12°C° 0 mm 3 m/s 753 mmHg 71%
    20:00 +12°C° 0 mm 2 m/s 754 mmHg 74%
    21:00 +10°C° 0 mm 2 m/s 754 mmHg 77%
    22:00 +9°C° 0 mm 2 m/s 755 mmHg 80%
    23:00 +8°C° 0 mm 2 m/s 755 mmHg 82%

    Poimâine, 29 Mai, Miercuri

    Timp Temperatura Precipitaţii Vânt Presiune Umiditate
    00:00 +7°C° 0 mm 2 m/s 756 mmHg 84%
    01:00 +7°C° 0 mm 2 m/s 756 mmHg 86%
    02:00 +6°C° 0 mm 2 m/s 757 mmHg 88%
    03:00 +5°C° 0 mm 2 m/s 757 mmHg 90%
    04:00 +5°C° 0 mm 2 m/s 758 mmHg 91%
    05:00 +6°C° 0 mm 2 m/s 758 mmHg 83%
    06:00 +8°C° 0 mm 3 m/s 759 mmHg 75%
    07:00 +10°C° 0 mm 3 m/s 759 mmHg 66%
    08:00 +11°C° 0 mm 3 m/s 759 mmHg 60%
    09:00 +12°C° 0 mm 3 m/s 760 mmHg 54%
    10:00 +13°C° 0 mm 3 m/s 760 mmHg 48%
    11:00 +14°C° 0 mm 3 m/s 760 mmHg 46%
    12:00 +16°C° 0 mm 3 m/s 760 mmHg 43%
    13:00 +17°C° 0 mm 3 m/s 760 mmHg 41%
    14:00 +17°C° 0 mm 2 m/s 760 mmHg 41%
    15:00 +17°C° 0 mm 2 m/s 760 mmHg 41%
    16:00 +18°C° 0 mm 2 m/s 760 mmHg 41%
    17:00 +17°C° 0 mm 2 m/s 760 mmHg 47%
    18:00 +16°C° 0 mm 2 m/s 760 mmHg 54%
    19:00 +15°C° 0 mm 2 m/s 760 mmHg 60%
    20:00 +13°C° 0 mm 2 m/s 761 mmHg 65%
    21:00 +10°C° 0 mm 2 m/s 761 mmHg 70%
    22:00 +8°C° 0 mm 2 m/s 761 mmHg 75%
    23:00 +8°C° 0 mm 2 m/s 761 mmHg 76%

    30 Mai, Joi

    Timp Temperatura Precipitaţii Vânt Presiune Umiditate
    00:00 +7°C° 0 mm 2 m/s 761 mmHg 77%
    01:00 +7°C° 0 mm 2 m/s 761 mmHg 79%
    02:00 +7°C° 0 mm 2 m/s 761 mmHg 80%
    03:00 +5°C° 0 mm 3 m/s 761 mmHg 81%
    04:00 +5°C° 0 mm 3 m/s 760 mmHg 83%
    05:00 +8°C° 0 mm 3 m/s 760 mmHg 77%
    06:00 +11°C° 0 mm 4 m/s 760 mmHg 72%
    07:00 +13°C° 0 mm 4 m/s 760 mmHg 66%
    08:00 +15°C° 0 mm 5 m/s 760 mmHg 60%
    09:00 +17°C° 0 mm 5 m/s 760 mmHg 55%
    10:00 +20°C° 0 mm 5 m/s 759 mmHg 49%
    11:00 +21°C° 0 mm 6 m/s 759 mmHg 48%
    12:00 +22°C° 0 mm 6 m/s 759 mmHg 48%
    13:00 +23°C° 0 mm 6 m/s 759 mmHg 47%
    14:00 +22°C° 0 mm 5 m/s 759 mmHg 50%
    15:00 +22°C° 0 mm 5 m/s 759 mmHg 53%
    16:00 +22°C° 0 mm 5 m/s 759 mmHg 57%
    17:00 +21°C° 0.1 mm 4 m/s 759 mmHg 64%
    18:00 +20°C° 0.1 mm 3 m/s 759 mmHg 71%
    19:00 +18°C° 0.1 mm 3 m/s 759 mmHg 78%
    20:00 +17°C° 0 mm 3 m/s 759 mmHg 83%
    21:00 +16°C° 0 mm 2 m/s 759 mmHg 89%
    22:00 +14°C° 0 mm 2 m/s 759 mmHg 95%
    23:00 +14°C° 0 mm 2 m/s 759 mmHg 95%

    31 Mai, Vineri

    Timp Temperatura Precipitaţii Vânt Presiune Umiditate
    00:00 +13°C° 0 mm 2 m/s 759 mmHg 96%
    01:00 +13°C° 0 mm 2 m/s 759 mmHg 96%
    02:00 +12°C° 0 mm 3 m/s 758 mmHg 96%
    03:00 +12°C° 0 mm 3 m/s 758 mmHg 95%
    04:00 +12°C° 0 mm 3 m/s 758 mmHg 95%
    05:00 +13°C° 0.2 mm 3 m/s 757 mmHg 93%
    06:00 +14°C° 0.2 mm 4 m/s 757 mmHg 92%
    07:00 +15°C° 0.2 mm 4 m/s 757 mmHg 90%
    08:00 +15°C° 0.6 mm 4 m/s 757 mmHg 90%
    09:00 +17°C° 0.6 mm 4 m/s 757 mmHg 90%
    10:00 +17°C° 0.6 mm 4 m/s 757 mmHg 91%
    11:00 +18°C° 0.8 mm 4 m/s 758 mmHg 88%
    12:00 +17°C° 0.8 mm 5 m/s 758 mmHg 85%
    13:00 +19°C° 0.8 mm 5 m/s 758 mmHg 82%
    14:00 +17°C° 0.2 mm 5 m/s 759 mmHg 81%
    15:00 +16°C° 0.2 mm 6 m/s 759 mmHg 80%
    16:00 +15°C° 0.2 mm 6 m/s 760 mmHg 79%
    17:00 +14°C° 0 mm 6 m/s 760 mmHg 79%
    18:00 +13°C° 0 mm 6 m/s 761 mmHg 79%
    19:00 +10°C° 0 mm 6 m/s 761 mmHg 78%
    20:00 +10°C° 0 mm 5 m/s 762 mmHg 79%
    21:00 +10°C° 0 mm 4 m/s 763 mmHg 79%
    22:00 +8°C° 0 mm 4 m/s 763 mmHg 79%
    23:00 +8°C° 0 mm 4 m/s 764 mmHg 76%

    1 Iunie, Sâmbătă

    Timp Temperatura Precipitaţii Vânt Presiune Umiditate
    00:00 +7°C° 0 mm 4 m/s 764 mmHg 73%
    01:00 +7°C° 0 mm 4 m/s 764 mmHg 69%
    02:00 +6°C° 0 mm 4 m/s 765 mmHg 73%
    03:00 +6°C° 0 mm 4 m/s 765 mmHg 77%
    04:00 +5°C° 0 mm 4 m/s 765 mmHg 81%
    05:00 +7°C° 0 mm 4 m/s 765 mmHg 77%
    06:00 +10°C° 0 mm 4 m/s 766 mmHg 73%
    07:00 +11°C° 0 mm 4 m/s 766 mmHg 70%
    08:00 +13°C° 0 mm 4 m/s 766 mmHg 63%
    09:00 +14°C° 0 mm 4 m/s 766 mmHg 56%
    10:00 +15°C° 0 mm 4 m/s 767 mmHg 50%
    11:00 +17°C° 0 mm 4 m/s 767 mmHg 47%
    12:00 +18°C° 0 mm 4 m/s 767 mmHg 45%
    13:00 +19°C° 0 mm 4 m/s 767 mmHg 42%
    14:00 +19°C° 0 mm 4 m/s 767 mmHg 43%
    15:00 +19°C° 0 mm 4 m/s 766 mmHg 44%
    16:00 +19°C° 0 mm 4 m/s 766 mmHg 44%
    17:00 +18°C° 0 mm 4 m/s 766 mmHg 50%
    18:00 +16°C° 0 mm 3 m/s 767 mmHg 56%
    19:00 +14°C° 0 mm 3 m/s 767 mmHg 63%
    20:00 +13°C° 0 mm 2 m/s 767 mmHg 67%
    21:00 +10°C° 0 mm 2 m/s 767 mmHg 72%
    22:00 +8°C° 0 mm 2 m/s 768 mmHg 77%
    23:00 +7°C° 0 mm 2 m/s 768 mmHg 78%
    Arată mai mult